This is the latest recevied weather packets stored in our database for station/object 9W2NNS-12. If no packets are shown the sender has not sent any weather packets the latest 10 day(s).
| Time | Temp. | Humidity | Pressure | Rain* | Wind** | Luminosity | Snow |
|---|---|---|---|---|---|---|---|
| 1787838378 | 35° C | 46% | 1016.4 hPa | - | - | - | - |
| 1787837775 | 35° C | 46% | 1014.9 hPa | - | - | - | - |
| 1787837169 | 35° C | 47% | 1014.3 hPa | - | - | - | - |
| 1787836566 | 35° C | 46% | 1014.2 hPa | - | - | - | - |
| 1787835962 | 35° C | 46% | 1012.7 hPa | - | - | - | - |
| 1787835359 | 35° C | 46% | 1011.8 hPa | - | - | - | - |
| 1787834755 | 35° C | 46% | 1016 hPa | - | - | - | - |
| 1787834151 | 35° C | 45% | 1015 hPa | - | - | - | - |
| 1787833548 | 35° C | 45% | 1014.2 hPa | - | - | - | - |
| 1787832944 | 35° C | 44% | 1012.3 hPa | - | - | - | - |
| 1787832340 | 35.56° C | 44% | 1011.9 hPa | - | - | - | - |
| 1787831738 | 35° C | 43% | 1011.9 hPa | - | - | - | - |
| 1787831135 | 35.56° C | 43% | 1011.4 hPa | - | - | - | - |
| 1787829321 | 35.56° C | 43% | 1011.5 hPa | - | - | - | - |
| 1787828718 | 36.11° C | 42% | 1010.4 hPa | - | - | - | - |
| 1787827510 | 36.11° C | 41% | 1010.9 hPa | - | - | - | - |
| 1787826303 | 37.22° C | 40% | 1011.2 hPa | - | - | - | - |
| 1787825095 | 37.78° C | 39% | 1009.7 hPa | - | - | - | - |
| 1787824491 | 37.78° C | 39% | 1010.3 hPa | - | - | - | - |
| 1787823888 | 37.22° C | 41% | 1010.7 hPa | - | - | - | - |
| 1787823284 | 36.67° C | 41% | 1010.8 hPa | - | - | - | - |
| 1787822680 | 36.67° C | 41% | 1012.2 hPa | - | - | - | - |
| 1787820869 | 36.67° C | 42% | 1008.7 hPa | - | - | - | - |
| 1787820266 | 36.67° C | 42% | 1007.6 hPa | - | - | - | - |
| 1787819663 | 36.67° C | 42% | 1010.8 hPa | - | - | - | - |
* Rain since midnight (hover to see other rain measurements)
** Current wind speed in m/s (hover to see current wind gust speed)